DG8SBT-13 Weather Reports


Display with metric or nautical units.
time (UTC)temp
F
wind
direction
speed
MPH
gust
MPH
rain 1hr
in
rain 24hr
in
rain mn
in
humidity
%
barometer
mb
20260503011852 71 0 0.0 0.0 0.00 0.00 0.00 29 1017.1
20260503001909 71 0 0.0 0.0 0.00 0.00 0.00 29 1017.4
20260502234919 72 0 0.0 0.0 0.00 0.00 0.00 29 1017.6
20260502231929 72 0 0.0 0.0 0.00 0.00 0.00 28 1017.6
20260502224940 73 0 0.0 0.0 0.00 0.00 0.00 28 1017.5
20260502221949 74 0 0.0 0.0 0.00 0.00 0.00 27 1017.7
20260502215001 75 0 0.0 0.0 0.00 0.00 0.00 29 1017.7
20260502212013 76 0 0.0 0.0 0.00 0.00 0.00 29 1017.7
20260502205024 76 0 0.0 0.0 0.00 0.00 0.00 27 1017.9
20260502202034 77 0 0.0 0.0 0.00 0.00 0.00 28 1018.0
20260502195044 78 0 0.0 0.0 0.00 0.00 0.00 27 1018.1
20260502192053 78 0 0.0 0.0 0.00 0.00 0.00 27 1017.8
20260502185101 78 0 0.0 0.0 0.00 0.00 0.00 26 1017.7
20260502182112 79 0 0.0 0.0 0.00 0.00 0.00 25 1017.5
20260502162149 79 0 0.0 0.0 0.00 0.00 0.00 27 1018.1
20260502152209 79 0 0.0 0.0 0.00 0.00 0.00 28 1018.8
20260502122306 77 0 0.0 0.0 0.00 0.00 0.00 35 1021.1
20260502115315 78 0 0.0 0.0 0.00 0.00 0.00 27 1021.5
20260502112323 76 0 0.0 0.0 0.00 0.00 0.00 29 1022.0
20260502105332 76 0 0.0 0.0 0.00 0.00 0.00 30 1022.4
20260502102343 75 0 0.0 0.0 0.00 0.00 0.00 30 1022.8
20260502065449 68 0 0.0 0.0 0.00 0.00 0.00 34 1023.9
20260502062458 68 0 0.0 0.0 0.00 0.00 0.00 34 1024.0
20260502055509 67 0 0.0 0.0 0.00 0.00 0.00 33 1024.0
20260502052518 67 0 0.0 0.0 0.00 0.00 0.00 33 1024.1
20260502045527 66 0 0.0 0.0 0.00 0.00 0.00 33 1024.1
20260502042538 66 0 0.0 0.0 0.00 0.00 0.00 32 1024.0
20260502035550 67 0 0.0 0.0 0.00 0.00 0.00 30 1023.7
20260502032600 67 0 0.0 0.0 0.00 0.00 0.00 30 1023.9
20260502025608 68 0 0.0 0.0 0.00 0.00 0.00 30 1024.0
20260502022619 68 0 0.0 0.0 0.00 0.00 0.00 31 1024.4